Winslow, AZ

12:02 PM MST on August 22, 2017 (GMT -0700)
Winslow-Lindbergh Regional

Weather History for KINW - November, 2013

Change the Weather History Date:

Thursday, November 7, 2013

  Actual Average Record
Temperature  
Mean Temperature 40 °F 48 °F  
Max Temperature 62 °F 64 °F 79 °F (1980)
Min Temperature 18 °F 31 °F 10 °F (1938)
Degree Days  
Heating Degree Days 25 17  
Month to date heating degree days 148 113  
Since 1 July heating degree days 561 419  
Cooling Degree Days 0 0  
Month to date cooling degree days 0 0  
Year to date cooling degree days 1380 1208  
Moisture  
Dew Point 10 °F    
Average Humidity 33    
Maximum Humidity 49    
Minimum Humidity 16    
Precipitation  
Precipitation 0.00 in 0.02 in 0.13 in (1937)
Month to date precipitation T 0.13  
Year to date precipitation 6.92 6.07  
Sea Level Pressure  
Sea Level Pressure 30.38 in    
Wind  
Wind Speed 1 mph (SW)    
Max Wind Speed 8 mph    
Max Gust Speed 12 mph    
Visibility 10 miles    
Events      
T = Trace of Precipitation, MM = Missing Value Source: NWS Daily Summary

Daily Weather History Graph

Daily Weather History Graph

Search for Another Location

Airport or City:

Trip Planner

Search our weather history database for the weather conditions in past years. The results will help you decide how hot, cold, wet, or windy it might be!

Date:

Astronomy

Nov. 07, 2013 Rise Set
Actual Time 6:49 AM MST 5:22 PM MST
Civil Twilight 6:23 AM MST 5:49 PM MST
Nautical Twilight 5:53 AM MST 6:19 PM MST
Astronomical Twilight 5:23 AM MST 6:49 PM MST
Moon 10:59 AM MST (11/7) 9:39 PM MST (11/7)
Length of Visible Light 11h 25m
Length of Day
10h 32m
Waxing Crescent, 23% of the Moon is Illuminated
Nov 7
Waxing Crescent
Nov 9
First Quarter
Nov 17
Full
Nov 25
Last Quarter
Dec 2
New

Hourly Weather History & Observations

Time (MST) Temp. Windchill Dew Point Humidity Pressure Visibility Wind Dir Wind Speed Gust Speed Precip Events Conditions
12:56 AM 28.9 °F - 3.9 °F 35% 30.45 in 10.0 mi Calm Calm - N/A   Clear
1:56 AM 27.0 °F - 3.9 °F 37% 30.45 in 10.0 mi Calm Calm - N/A   Clear
2:56 AM 24.1 °F - 1.9 °F 38% 30.46 in 10.0 mi Calm Calm - N/A   Clear
3:56 AM 21.0 °F - 1.0 °F 42% 30.47 in 10.0 mi Calm Calm - N/A   Clear
4:56 AM 19.9 °F 14.9 °F 3.0 °F 48% 30.49 in 10.0 mi SSW 3.5 mph - N/A   Clear
5:56 AM 21.0 °F 16.2 °F 3.0 °F 46% 30.51 in 10.0 mi SW 3.5 mph - N/A   Clear
6:56 AM 19.0 °F - 1.9 °F 47% 30.54 in 10.0 mi Calm Calm - N/A   Clear
7:56 AM 27.0 °F - 6.1 °F 41% 30.54 in 10.0 mi Calm Calm - N/A   Clear
8:56 AM 36.0 °F - 8.1 °F 31% 30.52 in 10.0 mi Calm Calm - N/A   Clear
9:56 AM 41.0 °F - 10.0 °F 28% 30.49 in 10.0 mi Calm Calm - N/A   Clear
10:56 AM 46.9 °F - 14.0 °F 27% 30.46 in 10.0 mi Calm Calm - N/A   Clear
11:56 AM 52.0 °F - 15.1 °F 23% 30.40 in 10.0 mi Calm Calm - N/A   Clear
12:56 PM 55.0 °F - 16.0 °F 22% 30.33 in 10.0 mi Calm Calm - N/A   Clear
1:56 PM 59.0 °F - 16.0 °F 19% 30.28 in 10.0 mi Calm Calm - N/A   Clear
2:56 PM 60.1 °F - 16.0 °F 18% 30.26 in 10.0 mi Variable 3.5 mph - N/A   Clear
3:56 PM 61.0 °F - 15.1 °F 17% 30.25 in 10.0 mi Calm Calm - N/A   Clear
4:56 PM 59.0 °F - 14.0 °F 17% 30.25 in 10.0 mi Calm Calm - N/A   Clear
5:56 PM 46.9 °F - 12.9 °F 25% 30.29 in 10.0 mi West 5.8 mph - N/A   Clear
6:56 PM 42.1 °F 40.2 °F 12.0 °F 29% 30.31 in 10.0 mi SW 3.5 mph - N/A   Clear
7:56 PM 37.9 °F 35.5 °F 10.9 °F 33% 30.30 in 10.0 mi WSW 3.5 mph - N/A   Clear
8:56 PM 35.1 °F 32.2 °F 10.9 °F 37% 30.29 in 10.0 mi SW 3.5 mph - N/A   Clear
9:56 PM 37.0 °F - 12.0 °F 36% 30.27 in 10.0 mi Calm Calm - N/A   Clear
10:56 PM 32.0 °F 27.5 °F 10.0 °F 40% 30.26 in 10.0 mi SSW 4.6 mph - N/A   Clear
11:56 PM 32.0 °F 28.7 °F 10.9 °F 42% 30.24 in 10.0 mi SSW 3.5 mph - N/A   Clear